Home > Weather > Behbahan > Past weeks

Flag for Iran Weather for the Past 2 Weeks in Behbahan, Iran

Now
45 °F

Clear.


Feels Like: 45 °F
Forecast: 41 / 64 °F
Wind: No wind

Location: Gach Saran Du Gunbadan

Current Time: Feb 9, 2016 at 12:56:14 AM

Latest Report: Feb 9, 2016 at 12:30 AM


Visibility: 10 mi

Pressure: 30.12 "Hg

Humidity: 57%

Dew point: 30 °F

Location of BehbahanLocation

Historic Weather in Behbahan — Graph

°F

Behbahan Temperature Yesterday

Maximum temperature yesterday: 64 °F (at 1:30 PM)
Minimum temperature yesterday: 46 °F (at 5:30 AM)
Average temperature yesterday: 55 °F

High & Low Weather Summary for the Past Weeks

 TemperatureHumidityPressure
High73 °F (Feb 6, 1:30 PM)100% (Jan 25, 3:30 AM)30.36 "Hg (Jan 25, 3:30 AM)
Low30 °F (Jan 29, 6:30 AM)15% (Feb 5, 1:30 PM)29.95 "Hg (Feb 7, 5:30 PM)
Average49 °F62%30.15 "Hg
* Reported Jan 24 11:30 PM — Feb 8 11:30 PM, Behbahan, Weather by CustomWeather, © 2016

Note: Actual official high and low records may vary slightly from our data, if they occured in-between our weather recording intervals... More about our weather records

Advertising

Behbahan Weather History for the Previous 24 Hours

 ConditionsComfort  
Time TempWeatherWind HumidityBarometerVisibility
11:30 PM
Mon, Feb 8
48 °FClear.No wind50%30.12 "Hg10 mi
10:30 PM50 °FClear.No wind47%30.12 "Hg10 mi
9:30 PM52 °FClear.No wind44%30.12 "Hg10 mi
8:30 PM54 °FClear.No wind38%30.09 "Hg10 mi
7:30 PM54 °FClear.No wind35%30.09 "Hg10 mi
6:30 PM55 °FClear.No wind36%30.09 "Hg10 mi
5:30 PM59 °FPassing clouds.12 mph31%30.09 "HgN/A
4:30 PM61 °FPassing clouds.12 mph31%30.07 "HgN/A
3:30 PM64 °FPassing clouds.9 mph24%30.07 "HgN/A
2:30 PM64 °FPassing clouds.7 mph37%30.07 "HgN/A
1:30 PM64 °FScattered clouds.No wind46%30.09 "HgN/A
12:30 PM63 °FScattered clouds.No wind56%30.09 "HgN/A
11:30 AM63 °FPassing clouds.12 mph56%30.12 "HgN/A
10:30 AM61 °FSunny.No wind52%30.12 "Hg10 mi
9:30 AM61 °FSunny.7 mph42%30.12 "Hg10 mi
8:30 AM54 °FSunny.No wind58%30.09 "Hg10 mi
7:30 AM48 °FScattered clouds.No wind66%30.07 "HgN/A
6:30 AM48 °FPassing clouds.No wind71%30.04 "HgN/A
5:30 AM46 °FPartly cloudy.No wind71%30.04 "HgN/A
4:30 AM48 °FPassing clouds.No wind66%30.04 "HgN/A
3:30 AM50 °FPassing clouds.No wind62%30.04 "HgN/A
2:30 AM52 °FPassing clouds.No wind58%30.07 "HgN/A
1:30 AM54 °FPassing clouds.No wind54%30.07 "HgN/A
12:30 AM55 °FPassing clouds.No wind44%30.07 "HgN/A
Weather by CustomWeather, © 2016

See weather overviewHow to use our weather pages